This is the latest recevied weather packets stored in our database for station/object F4FEB-13. If no packets are shown the sender has not sent any weather packets the latest 10 day(s).
| Time | Temp. | Humidity | Pressure | Rain* | Wind** | Luminosity | Snow |
|---|---|---|---|---|---|---|---|
| 1777993158 | 16.11° C | 73% | 1007.6 hPa | 0 mm | - | - | - |
| 1777992858 | 16.11° C | 77% | 1007.6 hPa | 0 mm | - | - | - |
| 1777992558 | 15.56° C | 80% | 1007.6 hPa | 0 mm | - | - | - |
| 1777992258 | 15° C | 79% | 1007.6 hPa | 0 mm | - | - | - |
| 1777991958 | 15° C | 82% | 1007.6 hPa | 0 mm | - | - | - |
| 1777991658 | 15° C | 83% | 1007.7 hPa | 0 mm | - | - | - |
| 1777991358 | 14.44° C | 81% | 1007.6 hPa | 0 mm | - | - | - |
| 1777991058 | 15° C | 80% | 1007.7 hPa | 0 mm | - | - | - |
| 1777990758 | 15° C | 80% | 1007.7 hPa | 0 mm | - | - | - |
| 1777990458 | 15.56° C | 83% | 1007.7 hPa | 0 mm | - | - | - |
| 1777989858 | 15.56° C | 83% | 1007.8 hPa | 0 mm | - | - | - |
| 1777989563 | 15.56° C | 86% | 1007.8 hPa | 0.25 mm | - | - | - |
| 1777989558 | 15.56° C | 86% | 1007.8 hPa | 0.25 mm | - | - | - |
| 1777989258 | 15.56° C | 88% | 1007.8 hPa | 0.25 mm | - | - | - |
| 1777988958 | 15° C | 86% | 1007.8 hPa | 0.51 mm | - | - | - |
| 1777988662 | 14.44° C | 85% | 1007.8 hPa | 0.51 mm | - | - | - |
| 1777988658 | 14.44° C | 85% | 1007.8 hPa | 0.51 mm | - | - | - |
| 1777988358 | 15° C | 88% | 1008 hPa | 0.76 mm | - | - | - |
| 1777988058 | 14.44° C | 90% | 1008 hPa | 1.02 mm | - | - | - |
| 1777987761 | 14.44° C | 93% | 1008.1 hPa | 1.27 mm | - | - | - |
| 1777987758 | 14.44° C | 93% | 1008.1 hPa | 1.27 mm | - | - | - |
| 1777987458 | 13.89° C | 94% | 1008.2 hPa | 1.78 mm | - | - | - |
| 1777987158 | 13.89° C | 96% | 1008.3 hPa | 2.03 mm | - | - | - |
| 1777986858 | 13.33° C | 96% | 1008.3 hPa | 2.29 mm | - | - | - |
| 1777986558 | 13.33° C | 97% | 1008.4 hPa | 2.54 mm | - | - | - |
* Rain latest hour (hover to see other rain measurements)
** Current wind speed in m/s (hover to see current wind gust speed)